Stations météo

réclame
Mon MeteoGroup
Rotterdam Zestienhoven, Pays-Bas (6344): Température de l'air & dewpoint: 04.12.2019 12:00:00 - 10.12.2019 12:00:00 (CET)Rotterdam Zestienhoven, Pays-Bas (6344): Température de l'air 5cm: 04.12.2019 12:00:00 - 10.12.2019 12:00:00 (CET)Rotterdam Zestienhoven, Pays-Bas (6344): Vitesse du vent & gusts: 04.12.2019 12:00:00 - 10.12.2019 12:00:00 (CET)Rotterdam Zestienhoven, Pays-Bas (6344): Direction du vent: 04.12.2019 12:00:00 - 10.12.2019 12:00:00 (CET)Rotterdam Zestienhoven, Pays-Bas (6344): reduced air pressure: 04.12.2019 12:00:00 - 10.12.2019 12:00:00 (CET)Rotterdam Zestienhoven, Pays-Bas (6344): visibility: 04.12.2019 12:00:00 - 10.12.2019 12:00:00 (CET)Rotterdam Zestienhoven, Pays-Bas (6344): Quantités de précipitations: 04.12.2019 12:00:00 - 10.12.2019 12:00:00 (CET)
Date & Time tt [°C] td [°C] tt 5cm [°C] ff [km/h] ff [knt] fx [km/h] fx [knt] dd ppp [hPa] vv [km] rr [mm]
10.12.2019 12:00:00 5,2 1,3 5,3 26 14 47 25 SSW 1021,8 10 0,0
10.12.2019 11:00:00 5,0 0,8 4,9 22 12 36 19 SSW 1023,0 10 0,0
10.12.2019 10:00:00 4,0 1,3 2,9 16 9 25 14 SSW 1023,6 10 0,0
10.12.2019 09:00:00 3,8 1,6 2,4 13 7 22 12 SSW 1023,9 10 0,0
10.12.2019 08:00:00 3,9 2,3 2,3 13 7 29 16 S 1023,8 10 0,0
10.12.2019 07:00:00 3,8 2,2 2,0 11 6 18 10 S 1023,9 10 0,0
10.12.2019 06:00:00 4,9 3,1 3,5 11 6 18 10 SW 1023,9 10 0,0
10.12.2019 05:00:00 4,1 2,2 1,0 15 8 18 10 WSW 1024,0 10 0,0
10.12.2019 04:00:00 2,3 1,1 1,0 9 5 11 6 SW 1023,8 10 0,0
10.12.2019 03:00:00 4,6 2,7 3,8 5 3 32 18 NNW 1023,3 10 0,2
10.12.2019 02:00:00 3,4 1,3 1,5 8 4 25 14 W 1022,8 10 0,0
10.12.2019 01:00:00 4,5 0,8 2,3 13 7 22 12 NW 1021,9 10 0,0
10.12.2019 00:00:00 5,8 1,5 4,2 15 8 29 16 NNW 1021,4 10 0,0
09.12.2019 23:00:00 5,2 1,0 3,2 16 9 32 18 NW 1020,2 10 0,0
09.12.2019 22:00:00 5,8 2,5 4,6 21 11 50 27 NNW 1019,4 10 0,0
09.12.2019 21:00:00 6,3 1,7 3,8 16 9 40 21 NW 1018,0 10 0,0
09.12.2019 20:00:00 7,0 2,0 5,7 24 13 47 25 NNW 1016,7 10 0,0
09.12.2019 19:00:00 7,0 1,7 5,4 28 15 50 27 NNW 1014,6 10 0,0
09.12.2019 18:00:00 7,3 2,3 5,7 31 17 61 33 NNW 1012,5 10 0,0
09.12.2019 17:00:00 7,5 1,4 5,8 41 22 68 37 NNW 1010,4 10 0,0
09.12.2019 16:00:00 8,1 3,6 6,8 31 17 54 29 N 1007,5 10 0,2
09.12.2019 15:00:00 7,2 4,6 6,5 37 20 65 35 N 1004,6 6 2,7
09.12.2019 14:00:00 8,6 6,9 8,4 24 13 40 21 N 1001,0 10 0,1
09.12.2019 13:00:00 8,1 6,9 8,3 18 10 43 23 W 997,8 10 0,0
09.12.2019 12:00:00 8,2 6,0 7,7 24 13 50 27 W 997,8 10 0,3
09.12.2019 11:00:00 8,5 6,4 7,5 21 11 40 21 W 997,5 10 0,4
09.12.2019 10:00:00 7,4 6,0 6,6 16 9 40 21 WNW 996,2 10 0,3
09.12.2019 09:00:00 7,3 5,7 6,1 16 9 29 16 WNW 994,6 10 0,0
09.12.2019 08:00:00 6,3 5,7 5,7 13 7 18 10 WSW 993,1 10 0,3
09.12.2019 07:00:00 5,3 4,7 4,7 9 5 29 16 SSW 991,8 10 2,0
09.12.2019 06:00:00 5,9 4,5 5,6 21 11 43 23 S 991,7 10 0,6
09.12.2019 05:00:00 6,6 4,2 5,9 39 21 58 31 SSW 992,1 10 0,1
09.12.2019 04:00:00 6,7 4,4 6,1 29 16 50 27 S 992,4 10 0,1
09.12.2019 03:00:00 7,4 4,6 6,4 34 18 54 29 SSW 993,5 10 0,0
09.12.2019 02:00:00 7,1 4,4 6,0 28 15 54 29 SSW 994,5 10 0,0
09.12.2019 01:00:00 7,1 4,2 6,0 31 17 47 25 SSW 995,1 10 0,1
09.12.2019 00:00:00 7,9 3,8 6,6 29 16 47 25 SW 995,5 10 0,0
08.12.2019 23:00:00 8,3 3,7 7,2 28 15 50 27 SW 996,1 10 0,0
08.12.2019 22:00:00 8,1 4,2 7,1 35 19 50 27 WSW 996,5 10 0,0
08.12.2019 21:00:00 8,0 4,9 7,1 39 21 61 33 SW 996,3 10 0,1
08.12.2019 20:00:00 9,2 5,7 8,4 29 16 50 27 SW 996,4 10 0,0
08.12.2019 19:00:00 9,4 5,9 8,7 37 20 54 29 SW 996,9 10 0,0
08.12.2019 18:00:00 9,5 5,9 8,5 34 18 58 31 SW 997,6 10 0,0
08.12.2019 17:00:00 9,3 5,8 8,4 35 19 58 31 SW 997,8 10 0,0
08.12.2019 16:00:00 9,7 5,8 8,9 34 18 50 27 SW 998,7 10 0,0
08.12.2019 15:00:00 10,0 5,6 9,5 31 17 61 33 WSW 999,1 10 0,0
08.12.2019 14:00:00 10,6 6,4 10,3 34 18 58 31 WSW 999,4 10 0,0
08.12.2019 13:00:00 10,5 6,8 9,8 34 18 54 29 WSW 999,6 10 0,0
08.12.2019 12:00:00 10,3 6,8 9,3 37 20 61 33 WSW 999,5 10 0,0
08.12.2019 11:00:00 10,4 8,8 9,5 29 16 50 27 SW 999,3 10 1,3
08.12.2019 10:00:00 9,7 8,9 9,3 37 20 58 31 SW 998,9 6 0,6
08.12.2019 09:00:00 9,4 8,3 9,0 44 24 61 33 SSW 999,1 10 0,2
08.12.2019 08:00:00 9,5 7,8 8,7 41 22 65 35 SSW 999,6 10 0,0
08.12.2019 07:00:00 8,8 7,7 8,2 35 19 61 33 SSW 1000,5 7 1,9
08.12.2019 06:00:00 9,1 6,9 8,3 41 22 65 35 SSW 1001,7 10 0,2
08.12.2019 05:00:00 9,3 5,8 8,7 37 20 65 35 SSW 1002,6 10 0,0
08.12.2019 04:00:00 9,3 5,6 8,6 37 20 58 31 SSW 1004,3 10 0,0
08.12.2019 03:00:00 9,5 5,7 8,9 42 23 61 33 SSW 1005,9 10 0,0
08.12.2019 02:00:00 9,7 6,2 9,0 31 17 54 29 SSW 1007,0 10 0,0
08.12.2019 01:00:00 9,4 6,6 9,0 34 18 50 27 SSW 1008,2 10 0,0
08.12.2019 00:00:00 9,6 6,7 9,0 35 19 58 31 SSW 1009,3 10 0,0
07.12.2019 23:00:00 9,6 7,2 9,0 26 14 40 21 SSW 1010,5 10 0,0
07.12.2019 22:00:00 8,9 6,4 8,4 26 14 43 23 SSW 1011,0 10 0,0
07.12.2019 21:00:00 8,8 5,5 8,1 24 13 40 21 SW 1012,0 10 0,0
07.12.2019 20:00:00 9,2 4,7 8,3 21 11 40 21 SW 1012,7 10 0,0
07.12.2019 19:00:00 9,1 5,9 8,5 21 11 29 16 SW 1013,3 10 0,0
07.12.2019 18:00:00 9,0 6,8 8,4 16 9 29 16 SW 1013,4 10 0,0
07.12.2019 17:00:00 9,1 6,7 8,6 21 11 32 18 SW 1013,0 10 0,0
07.12.2019 16:00:00 9,6 6,7 8,9 21 11 36 19 WSW 1013,0 10 0,0
07.12.2019 15:00:00 9,9 7,1 9,4 22 12 36 19 WSW 1012,7 10 0,0
07.12.2019 14:00:00 10,1 7,1 9,7 22 12 36 19 WSW 1012,7 10 0,0
07.12.2019 13:00:00 10,1 7,2 9,8 21 11 36 19 WSW 1012,7 10 0,0
07.12.2019 12:00:00 10,1 7,1 9,6 21 11 29 16 WSW 1012,4 10 0,0
07.12.2019 11:00:00 9,9 7,0 9,2 16 9 25 14 WSW 1012,7 10 0,0
07.12.2019 10:00:00 9,7 6,8 8,9 18 10 29 16 WSW 1012,3 10 0,0
07.12.2019 09:00:00 9,5 7,0 8,7 16 9 32 18 W 1011,6 10 0,0
07.12.2019 08:00:00 9,6 6,7 8,7 22 12 32 18 W 1010,7 10 0,0
07.12.2019 07:00:00 9,4 6,9 8,4 18 10 32 18 W 1010,0 10 0,0
07.12.2019 06:00:00 9,2 6,9 8,1 21 11 36 19 W 1009,2 10 0,0
07.12.2019 05:00:00 9,6 7,2 9,0 22 12 43 23 W 1008,6 10 0,0
07.12.2019 04:00:00 9,7 7,3 9,0 24 13 47 25 W 1007,8 10 0,0
07.12.2019 03:00:00 9,9 7,2 9,0 26 14 43 23 W 1007,0 10 0,0
07.12.2019 02:00:00 9,9 7,4 9,1 26 14 43 23 W 1006,1 10 0,0
07.12.2019 01:00:00 9,8 7,8 9,0 26 14 47 25 W 1005,2 10 0,0
07.12.2019 00:00:00 10,1 7,6 9,0 29 16 50 27 W 1004,4 10 0,2
06.12.2019 23:00:00 9,6 8,3 8,8 24 13 47 25 W 1003,1 9 2,4
06.12.2019 22:00:00 9,2 7,2 8,4 28 15 58 31 WSW 1002,2 10 0,1
06.12.2019 21:00:00 9,5 8,7 8,8 37 20 54 29 SW 1001,0 7 1,3
06.12.2019 20:00:00 8,4 7,8 8,1 28 15 54 29 SSW 1001,1 8 0,2
06.12.2019 19:00:00 8,7 7,9 8,1 37 20 54 29 SSW 1001,8 10 0,6
06.12.2019 18:00:00 8,1 7,5 7,8 35 19 54 29 SSW 1001,8 4,7 0,5
06.12.2019 17:00:00 8,1 7,6 7,8 41 22 61 33 SSW 1002,6 3,7 0,2
06.12.2019 16:00:00 7,9 7,3 7,6 37 20 65 35 SSW 1003,0 3,9 0,1
06.12.2019 15:00:00 7,8 7,0 7,5 41 22 61 33 SSW 1003,6 7 0,6
06.12.2019 14:00:00 7,7 6,6 7,2 35 19 65 35 SSW 1004,4 10 0,0
06.12.2019 13:00:00 7,1 6,1 6,6 42 23 65 35 SSW 1005,7 10 1,0
06.12.2019 12:00:00 6,4 5,7 6,0 37 20 54 29 SSW 1006,6 5 0,5
06.12.2019 11:00:00 5,8 5,0 5,5 35 19 54 29 SSW 1007,7 4,5 0,0
06.12.2019 10:00:00 5,4 4,6 5,1 34 18 58 31 SSW 1008,2 8 0,6
06.12.2019 09:00:00 5,4 4,7 5,2 34 18 47 25 SSW 1008,7 5 0,6
06.12.2019 08:00:00 5,3 4,5 5,0 34 18 61 33 SSW 1008,8 3,4 1,0
06.12.2019 07:00:00 5,2 4,4 4,9 34 18 58 31 SSW 1009,5 5 1,1
06.12.2019 06:00:00 5,0 4,2 4,9 41 22 58 31 SSW 1009,8 7 0,1
06.12.2019 05:00:00 5,5 4,4 5,1 42 23 58 31 SSW 1010,2 7 0,3
06.12.2019 04:00:00 5,5 4,0 5,2 41 22 61 33 SSW 1010,9 9 0,0
06.12.2019 03:00:00 5,2 3,9 5,0 34 18 58 31 SSW 1011,7 8 0,0
06.12.2019 02:00:00 5,3 3,9 4,9 39 21 61 33 SSW 1012,1 8 0,0
06.12.2019 01:00:00 4,8 3,7 4,5 39 21 58 31 SSW 1012,7 6 0,0
06.12.2019 00:00:00 4,6 3,8 4,3 34 18 50 27 SSW 1013,6 5 0,0
05.12.2019 23:00:00 4,6 4,0 4,5 31 17 47 25 SSW 1014,5 4,7 0,0
05.12.2019 22:00:00 4,4 4,2 3,8 26 14 43 23 SSW 1015,3 2,0 0,0
05.12.2019 21:00:00 3,4 3,3 3,4 28 15 43 23 SSW 1016,0 2,1 0,0
05.12.2019 20:00:00 3,2 3,1 3,2 28 15 47 25 SSW 1016,4 1,9 0,0
05.12.2019 19:00:00 3,3 3,0 3,3 22 12 40 21 S 1016,8 2,3 0,0
05.12.2019 18:00:00 3,7 3,5 3,8 24 13 40 21 SSW 1017,7 2,4 0,0
05.12.2019 17:00:00 5,0 4,2 4,9 22 12 36 19 SSW 1018,0 4,7 0,0
05.12.2019 16:00:00 5,5 4,4 5,2 24 13 32 18 SW 1018,6 5 0,0
05.12.2019 15:00:00 5,8 4,2 5,5 18 10 25 14 SSW 1018,8 9 0,0
05.12.2019 14:00:00 5,5 4,1 5,6 15 8 25 14 SSW 1019,2 7 0,0
05.12.2019 13:00:00 4,3 3,5 4,2 13 7 32 18 SSW 1019,9 4,9 0,0
05.12.2019 12:00:00 2,8 2,7 3,2 15 8 25 14 S 1020,2 1,6 0,0
05.12.2019 11:00:00 1,7 1,6 1,6 13 7 25 14 S 1020,5 0,2 0,0
05.12.2019 10:00:00 1,2 0,8 0,5 16 9 32 18 S 1020,6 4,8 0,0
05.12.2019 09:00:00 1,0 0,4 -0,8 15 8 22 12 S 1020,6 4,8 0,0
05.12.2019 08:00:00 0,4 0,4 -0,6 13 7 25 14 S 1020,5 2,1 0,0
05.12.2019 07:00:00 0,5 0,5 -0,3 9 5 18 10 S 1020,2 0,6 0,0
05.12.2019 06:00:00 0,1 0,1 -0,2 5 3 11 6 S 1020,1 0,3 0,0
05.12.2019 05:00:00 0,2 0,2 -0,1 9 5 11 6 S 1020,0 0,3 0,0
05.12.2019 04:00:00 -0,3 -0,3 -0,5 5 3 7 4 S 1020,1 0,2 0,0
05.12.2019 03:00:00 -0,2 -0,2 -0,3 4 2 11 6 - 1020,2 0,2 0,0
05.12.2019 02:00:00 -0,2 -0,2 -0,7 8 4 11 6 SSE 1020,0 0,2 0,0
05.12.2019 01:00:00 -2,0 -2,2 -3,1 2 1 14 8 - 1020,2 2,6 0,0
05.12.2019 00:00:00 -1,4 -1,9 -3,1 4 2 11 6 - 1020,2 2,8 0,0
04.12.2019 23:00:00 -0,7 -1,0 -2,5 5 3 11 6 S 1020,2 2,5 0,0
04.12.2019 22:00:00 -0,8 -0,8 -2,1 4 2 7 4 E 1020,6 2,4 0,0
04.12.2019 21:00:00 -1,2 -1,2 -1,7 4 2 11 6 - 1020,9 5 0,0
04.12.2019 20:00:00 1,7 1,0 -1,0 5 3 11 6 E 1020,9 9 0,0
04.12.2019 19:00:00 2,9 2,0 -0,8 9 5 11 6 ESE 1020,9 9 0,0
04.12.2019 18:00:00 2,6 1,2 -0,4 4 2 7 4 - 1020,8 10 0,0
04.12.2019 17:00:00 3,5 2,3 0,7 4 2 4 2 E 1020,6 10 0,0
04.12.2019 16:00:00 6,5 2,9 3,8 4 2 7 4 NE 1020,6 10 0,0
04.12.2019 15:00:00 8,0 2,8 9,3 0 0 7 4 N 1021,0 10 0,0
04.12.2019 14:00:00 7,5 3,1 9,3 5 3 11 6 SW 1021,6 10 0,0
04.12.2019 13:00:00 7,3 3,2 8,6 9 5 18 10 S 1021,7 10 0,0
04.12.2019 12:00:00 6,6 3,4 7,9 8 4 14 8 SSW 1022,4 10 0,0

tt = Température de l'air
td = dewpoint
tt 5cm = Température de l'air 5cm
ff = Vitesse du vent
fx = gusts
dd = Direction du vent
ppp = reduced air pressure
vv = visibility
rr = Quantités de précipitations

stations d'obs. à proximité